Starlink 31323

operational
NORAD ID: 58882 Int'l Des: 2024-020 Owner: SPXS Country: US Constellation: starlink
LEOCIRCULAR

关于 Starlink 31323

正在加载描述...

实时位置

正在加载3D地球...

即将过境

高度历史

Altitude vs Time

uPlot chart will show altitude changes over time

两行轨道根数

1 58882U 24020G 25258.71950973 .00005124 00000-0 18498-3 0 9997
2 58882 53.1605 55.0521 0001083 91.5922 268.5203 15.30206375 91289
Epoch: Sep 15, 2025 • Age: 25 hours

当前状态

高度 476.6 km
速度 7.63 km/s
星下点 31.09°N, 163.06°E
发射日期 Jan 29, 2024
运行时间 1.6 years
类型 internet

技术详情

分类 Payload
质量 730.00 kg
干质量 700.00 kg
总质量 730.00 kg
长度 0.30 m
直径 4.10 m
跨度 29.00 m
形状 Box + pan
制造商 SPXS
平台类型 Starlink V2M
阶段状态 In Orbit
所有者/国家 SPXS/US

大型星座

Loading constellations...